Regional Weather Roundup
Issued by NWS Burlington, VT

Current Version | Previous Version | Text Only | Print | Product List | Glossary On
Versions: 1 2 3 4 5 6 7 8 9 10 11 12 13 14 15 16 17 18 19 20 21 22 23 24 25 26 27 28 29 30 31 32 33 34 35 36 37 38 39 40 41 42 43 44 45 46 47 48 49 50
000
ASUS41 KBTV 240830
RWRBTV
VERMONT REGIONAL WEATHER ROUNDUP
NATIONAL WEATHER SERVICE BURLINGTON VT
400 AM EDT FRI MAR 24 2017

NOTE: "FAIR" INDICATES FEW OR NO CLOUDS BELOW 12,000 FEET WITH NO
SIGNIFICANT WEATHER AND/OR OBSTRUCTIONS TO VISIBILITY.

* THESE REPORTS ARE NOT UNDER NWS QUALITY CONTROL AND/OR DO NOT
  REPORT WEATHER SUCH AS PRECIPITATION AND FOG.

VTZ001>019-240900-
_____VERMONT_____


CITY           SKY/WX    TMP DP  RH WIND       PRES   REMARKS
BURLINGTON     CLOUDY    30   7  37 S9        30.36F WCI  22
MONTPELIER     CLOUDY    23   7  50 SE7       30.39F WCI  15
MORRISVILLE    CLOUDY    17   9  70 NW3       30.38F
ST. JOHNSBURY*   N/A     18   8  65 MISG      30.40F
LYNDONVILLE*   CLOUDY    16   7  66 N3        30.38F
MIDDLEBURY*    CLOUDY    29   8  41 S5        30.37F WCI  24
RUTLAND*       CLOUDY    24   9  52 SE6       30.39F WCI  17
SPRINGFIELD    CLOUDY    22  10  60 CALM      30.43F
HIGHGATE*      CLOUDY    26   9  47 SE3       30.36F
NEWPORT*       CLOUDY    22   4  45 CALM      30.37F
BENNINGTON     CLOUDY    31   4  31 VRB3      30.38F
SUTTON*          N/A     18 N/A N/A MISG        N/A
ISLAND POND*     N/A     10 N/A N/A CALM        N/A
GALLUP MILLS*    N/A     12 N/A N/A MISG        N/A
UNION VILLAGE*   N/A     21 N/A N/A MISG        N/A
MT. MANSFIELD*   N/A     18 N/A N/A S26G40      N/A  WCI  -1

_____LAKE CHAMPLAIN_____


CITY           SKY/WX    TMP DP  RH WIND       PRES   REMARKS
BURTON ISLAND*   N/A     30  16  55 S15         N/A  WCI  19
COLCHESTER RF*   N/A     32  19  59 S26         N/A  WCI  18
DIAMOND ISL*     N/A     32  14  47 S15         N/A  WCI  22

$$

NYZ007-026>031-035-052-083-087-240900-
_____NORTHERN NEW YORK_____


CITY           SKY/WX    TMP DP  RH WIND       PRES   REMARKS
PLATTSBURGH    CLOUDY    28  11  48 S5        30.36F WCI  23
SARANAC LAKE   CLOUDY    21  10  62 SW3       30.25F
MASSENA        CLOUDY    28  15  58 NE5       30.31F WCI  23
POTSDAM*       MOCLDY    30  10  43 S5        30.29F WCI  25
STARK FALLS*     N/A     27 N/A N/A SE12        N/A  WCI  16
WATERTOWN      CLOUDY    36  12  37 S9        30.26F WCI  29
FT DRUM        PTCLDY    30  11  45 SE13      30.25F WCI  20
ALBANY         CLOUDY    30   8  39 S5        30.41F WCI  25
GLENS FALLS    CLOUDY    29  11  47 CALM      30.41F

$$
NHZ002-005-011-240900-
_____NEW HAMPSHIRE_____


CITY           SKY/WX    TMP DP  RH WIND       PRES   REMARKS
LEBANON        PTCLDY    24  11  57 CALM      30.42F
KEENE          CLOUDY    25  15  66 CALM      30.45F
MT WASHINGTON  CLOUDY    12  -9  37 SW26        N/A  WCI  -8
PLYMOUTH       MOCLDY    23  11  61 CALM      30.44F
WHITEFIELD     CLOUDY    12   3  67 CALM      30.40F

$$

_____REGIONAL QUEBEC LOCATIONS_____


CITY           SKY/WX    TMP DP  RH WIND       PRES   REMARKS
MONTREAL       CLOUDY    28  12  50 SE6       30.33F WCI  22
QUEBEC CITY    CLOUDY    19   7  58 NE2       30.35S
SHERBROOKE     CLOUDY    16   7  67 E2        30.36S

_____REGIONAL ONTARIO LOCATIONS_____


CITY           SKY/WX    TMP DP  RH WIND       PRES   REMARKS
OTTAWA         CLOUDY    28  14  54 SE6       30.27F WCI  22

______KEY______
VSB  - VISIBILITY IN MILES
WCI  - WIND CHILL INDEX
HX   - HEAT INDEX
$$
NNNN



USA.gov is the U.S. government's official web portal to all federal, state and local government web resources and services.